Location: Unspecified
(0.0000°N, 0.0000°E)
Time: 04:03:53
(UTC+02:00)

GPS 2-15 Rocket1 - Visible Passes

Search period start: 31 May 2016 00:00
Search period end: 10 June 2016 00:00
Orbit: 625 x 677 km, 19.8° (Epoch: 30 May)

Date Brightness Start Highest point End Pass type
(mag) Time Alt. Az. Time Alt. Az. Time Alt. Az.
31 May 5.8 22:21:34 10° NNW 22:22:48 13° N 22:22:48 13° N visible
01 Jun 6.1 22:47:05 10° NW 22:47:30 12° NNW 22:47:30 12° NNW visible
02 Jun 5.3 21:30:15 10° NNW 21:33:04 15° NNE 21:34:34 14° NE visible
03 Jun 4.8 21:55:49 10° NW 21:59:18 25° N 21:59:18 25° N visible
04 Jun 5.3 20:38:57 10° NNW 20:41:55 16° NNE 20:44:53 10° NE visible
04 Jun 5.1 22:21:47 10° NW 22:24:03 26° NW 22:24:03 26° NW visible
05 Jun 4.6 21:04:34 10° NW 21:08:35 27° NNE 21:11:09 17° ENE visible
05 Jun 6.0 22:48:06 10° WNW 22:48:48 14° WNW 22:48:48 14° WNW visible
06 Jun 3.5 21:30:35 10° NW 21:35:09 51° NNE 21:35:56 46° NE visible
07 Jun 5.6 06:19:33 10° SSE 06:19:33 10° SSE 06:20:26 10° SSE visible
07 Jun 3.6 21:56:59 10° WNW 22:00:43 56° W 22:00:43 56° W visible
08 Jun 5.2 06:44:23 13° S 06:46:19 16° SSE 06:49:22 10° SE visible
08 Jun 3.5 20:39:24 10° WNW 20:43:58 56° NNE 20:47:53 14° E visible
08 Jun 5.3 22:23:46 10° W 22:25:32 21° W 22:25:32 21° W visible
09 Jun 4.7 07:09:12 11° SW 07:13:02 26° SSE 07:17:11 10° ESE visible
09 Jun 3.1 21:05:50 10° WNW 21:10:30 73° SSW 21:12:42 31° ESE visible
